CW7313 Drosia of Attica GR current weather conditions

sailwx.info

Wind from 092

Air temperature 12.2° C
Dewpoint -4.4° C

Last reported at 2020-Jan-22 13:05 UTC.
Time now 2020-Jan-22 14:17 UTC

Location: N 38°07' E 023°55'.
View on Google Maps.

See reports from other nearby stations

  
Tides and Currents Weather Stations Pressure Air Temp Water Temp Dewpoint Dewpoint Depression Visibility Wind Speed Wind Dir Waves Ship Positions
date/time (UTC)wind fromknots sea level pressurealtimeterstation pressurevisibilityair tempwater tempwave heightnotes
2020-Jan-22 13:35 098 12.2
2020-Jan-22 13:05 092 12.2
2020-Jan-22 12:35 031 12.8
2020-Jan-22 12:06 009 12.2
2020-Jan-22 11:35 005 12.2
2020-Jan-22 11:05 360 11.1
2020-Jan-22 10:35 010 10.6
2020-Jan-22 10:06 046 10.0
2020-Jan-22 09:35 360 9.4
2020-Jan-22 09:05 039 8.9
2020-Jan-22 08:35 052 8.3
2020-Jan-22 08:05 021 7.8
2020-Jan-22 07:36 092 6.7
2020-Jan-22 07:05 092 5.6
2020-Jan-22 06:35 092 4.4
2020-Jan-22 06:05 092 2.2
2020-Jan-22 05:36 088 1.7
2020-Jan-22 05:06 089 1.7
2020-Jan-22 04:35 089 1.7
2020-Jan-22 04:05 089 2.2
2020-Jan-22 03:35 088 2.2
2020-Jan-22 03:05 071 3.3
2020-Jan-22 02:35 181 1.1
2020-Jan-22 02:05 180 1.7
2020-Jan-22 01:35 045 2.2
2020-Jan-22 01:05 044 2.8
2020-Jan-22 00:35 044 1.7
2020-Jan-22 00:05 044 2.8
2020-Jan-21 23:35 044 3.9
2020-Jan-21 23:05 044 3.9
2020-Jan-21 22:36 041 4.4
2020-Jan-21 22:06 052 3.9
2020-Jan-21 21:35 051 2.2
2020-Jan-21 21:05 051 3.3
2020-Jan-21 20:35 053 3.9
2020-Jan-21 20:05 026 3.3
2020-Jan-21 19:35 027 2.8
2020-Jan-21 19:05 026 2.8
2020-Jan-21 18:35 027 3.3
2020-Jan-21 18:05 026 3.3
2020-Jan-21 17:35 027 3.9
2020-Jan-21 17:05 026 3.9
2020-Jan-21 16:37 355 4.4
2020-Jan-21 16:05 019 4.4
2020-Jan-21 15:35 040 4.4
2020-Jan-21 15:05 073 5.0
2020-Jan-21 14:36 023 5.6
2020-Jan-21 14:05 030 5.6
2020-Jan-21 13:35 355 5.6
2020-Jan-21 13:05 023 5.6
2020-Jan-21 12:35 355 5.6
2020-Jan-21 12:05 033 5.0
2020-Jan-21 11:35 011 5.0
2020-Jan-21 11:05 094 5.0
2020-Jan-21 10:35 067 5.0
2020-Jan-21 10:05 061 5.0
2020-Jan-21 09:35 019 5.0
2020-Jan-21 09:05 011 5.0
2020-Jan-21 08:35 038 5.6
2020-Jan-21 08:06 082 5.6
2020-Jan-21 07:35 066 5.0
2020-Jan-21 07:05 040 4.4
2020-Jan-21 06:36 083 3.9
2020-Jan-21 06:05 094 3.9
2020-Jan-21 05:35 034 3.9
2020-Jan-21 05:05 098 3.9
2020-Jan-21 04:35 087 4.4
2020-Jan-21 04:05 088 4.4
2020-Jan-21 03:35 026 4.4
2020-Jan-21 03:05 041 4.4
2020-Jan-21 02:35 103 4.4
2020-Jan-21 02:05 013 4.4
2020-Jan-21 01:35 141 4.4
2020-Jan-21 01:05 065 5.0
2020-Jan-21 00:35 022 5.0
2020-Jan-21 00:05 015 5.0
2020-Jan-20 23:36 034 5.0
2020-Jan-20 23:05 023 5.0
2020-Jan-20 22:35 350 5.0
2020-Jan-20 22:05 076 5.0
2020-Jan-20 21:35 094 5.0
2020-Jan-20 21:05 060 5.0
2020-Jan-20 20:35 360 5.0
2020-Jan-20 20:05 051 4.4
2020-Jan-20 19:35 010 4.4
2020-Jan-20 19:05 013 4.4
2020-Jan-20 18:35
2020-Jan-20 18:05
2020-Jan-20 17:35
2020-Jan-20 17:05
2020-Jan-20 16:35
2020-Jan-20 16:06
2020-Jan-20 15:35
2020-Jan-20 15:05
2020-Jan-20 14:35
2020-Jan-20 14:06